天绘卫星 6A星 (TIANHUI 6A)

导读

TIANHUI 6A即天绘六号A卫星,由中国航天科技集团有限公司所属中国空间技术研究院抓总研制,于北京时间2023年3月10日6时41分,在太原卫星发射中心通过长征四号丙运载火箭,以一箭双星方式和天绘六号B星一同发射,卫星顺利进入预定轨道。该卫星主要用于地理信息测绘、国土资源普查和科学试验研究等任务。

基本信息
目录编号:
55836
目录名称:
TIANHUI 6A
国际标识:
2023-030A
轨道中心:
EARTH
卫星名称:
天绘卫星 6A星
卫星全名:
天绘卫星 6A星 (TIANHUI 6A)
卫星状态:
在轨 (已飞行1285 天)
发射日期:
2023-03-09 UTC
国别 :
中国 (CN)
星等 :
--
该卫星已列入 空间交会检测服务 Space Conjunction Data Service (SCDS) ,当前飞行风险评估等级: 无高风险
轨道信息
数据来源 国际轨道数据 AOE轨道数据
星历时间 2026-09-14T07:19:19+0800
5小时前
查看轨道信息
2026-09-12T02:00:00+0800
2天前
查看轨道信息
半长轴 7267.341km 7267.331km
偏心率 0.0003123 0.0003029
轨道倾角 99.013° 99.013°
近地点辐角 131.926° 135.885°
升交点赤经 264.115° 261.921°
平近点角 228.217° 182.218°
近地点 886.934km 886.992km
远地点 891.474km 891.396km
周期 102.760分钟 102.760分钟
每日圈数 14.01327 14.013298
详细信息
卫星平台:
CAST2000卫星平台
平衡模式:
三轴稳定
覆盖范围:
南北纬80°
运营商:
中国东方红卫星股份有限公司
运营商所在国:
中国
制造商(研发单位):
中国东方红卫星股份有限公司
制造商所在国:
中国
使用方式:
暂无
卫星简介
天绘一号实现了中国测绘卫星从返回式胶片型到CCD传输型的跨越式发展,在中国首次实现了影像数据经过地面系统处理,无地面控制点条件下,与美国SRTM(航天飞机雷达地形测绘任务)相对精度12m/6m(平面/高程1σ)同等的技术水平,天绘二号采用CAST2000卫星平台,目前已发射01组、02组卫星。该卫星仍在工作。
2D轨道图
3D轨道图
轨道高度分析图
轨道倾角分析图
轨道综合分析图
查看轨道综合分析图
交会数据列表
事件ID 空间交会对象 最接近时刻(TCA) 交会距离 交会风险概率(CRP) 交会风险指数(CRI) 操作
CDM_260914-060603-125505-583624
2026-09-14T
06:06:12+0000
2.726 km
极远距离
1.510028E-6 低风险 0.39
与全量物体交会距离演化趋势 订阅飞行安全评估服务
与全量物体交会风险概率演化趋势 订阅飞行安全评估服务